Change the Weather History Date:

Thursday, October 6, 2011

  Actual Average Record
Temperature  
Mean Temperature 42 °F -  
Max Temperature 46 °F 40 °F 61 °F (1969)
Min Temperature 37 °F 21 °F -2 °F (1970)
Degree Days  
Heating Degree Days 24    
Moisture  
Dew Point 27 °F    
Average Humidity 58    
Maximum Humidity 65    
Minimum Humidity 49    
Precipitation  
Precipitation 0.00 in - - ()
Sea Level Pressure  
Sea Level Pressure 29.36 in    
Wind  
Wind Speed 3 mph (South)    
Max Wind Speed 10 mph    
Max Gust Speed 17 mph    
Visibility 10 miles    
Events      
Averages and records for this station are not official NWS values.
T = Trace of Precipitation, MM = Missing Value Source: NWS Daily Summary

Daily Weather History Graph

Daily Weather History Graph

Search for Another Location

Airport or City:

Trip Planner

Search our weather history database for the weather conditions in past years. The results will help you decide how hot, cold, wet, or windy it might be!

Date:

Astronomy

Oct. 06, 2011 Rise Set
Actual Time 8:18 AM AKDT 7:07 PM AKDT
Civil Twilight 7:31 AM AKDT 7:54 PM AKDT
Nautical Twilight 6:36 AM AKDT 8:49 PM AKDT
Astronomical Twilight 5:38 AM AKDT 9:46 PM AKDT
Moon 5:46 PM AKDT (10/6) 1:38 AM AKDT (10/6)
Length of Visible Light 12h 23m
Length of Day
10h 49m
Waxing Gibbous, 76% of the Moon is Illuminated
Oct 6
Waxing Gibbous
Oct 11
Full
Oct 19
Last Quarter
Oct 26
New
Nov 2
First Quarter

Hourly Weather History & Observations

Time (AKDT) Temp. Windchill Dew Point Humidity Pressure Visibility Wind Dir Wind Speed Gust Speed Precip Events Conditions
12:16 AM 39.2 °F - 26.6 °F 61% 29.35 in 10.0 mi Calm Calm - N/A   Mostly Cloudy
12:36 AM 37.4 °F - 26.6 °F 65% 29.35 in 10.0 mi Calm Calm - N/A   Overcast
12:56 AM 39.2 °F - 26.6 °F 61% 29.35 in 10.0 mi Calm Calm - N/A   Overcast
1:16 AM 39.2 °F 37.0 °F 26.6 °F 61% 29.35 in 10.0 mi SSE 3.5 mph - N/A   Overcast
1:36 AM 39.2 °F - 26.6 °F 61% 29.35 in 10.0 mi Calm Calm - N/A   Overcast
1:56 AM 39.2 °F - 26.6 °F 61% 29.35 in 10.0 mi Calm Calm - N/A   Overcast
2:16 AM 39.2 °F 37.0 °F 26.6 °F 61% 29.35 in 10.0 mi SW 3.5 mph - N/A   Mostly Cloudy
2:36 AM 39.2 °F - 26.6 °F 61% 29.34 in 10.0 mi Calm Calm - N/A   Mostly Cloudy
2:56 AM 41.0 °F 39.0 °F 26.6 °F 57% 29.34 in 10.0 mi WSW 3.5 mph - N/A   Overcast
3:16 AM 39.2 °F - 26.6 °F 61% 29.35 in 10.0 mi Calm Calm - N/A   Overcast
3:36 AM 39.2 °F - 26.6 °F 61% 29.34 in 10.0 mi Calm Calm - N/A   Mostly Cloudy
3:56 AM 37.4 °F 34.9 °F 26.6 °F 65% 29.34 in 10.0 mi SSW 3.5 mph - N/A   Scattered Clouds
4:16 AM 37.4 °F 34.9 °F 26.6 °F 65% 29.34 in 10.0 mi SSW 3.5 mph - N/A   Scattered Clouds
4:36 AM 37.4 °F 33.8 °F 26.6 °F 65% 29.34 in 10.0 mi SSW 4.6 mph - N/A   Scattered Clouds
4:56 AM 39.2 °F - 26.6 °F 61% 29.35 in 10.0 mi Calm Calm - N/A   Scattered Clouds
5:16 AM 37.4 °F 34.9 °F 26.6 °F 65% 29.34 in 10.0 mi South 3.5 mph - N/A   Mostly Cloudy
5:36 AM 37.4 °F 33.8 °F 26.6 °F 65% 29.34 in 10.0 mi SSW 4.6 mph - N/A   Mostly Cloudy
5:56 AM 37.4 °F 34.9 °F 26.6 °F 65% 29.34 in 10.0 mi South 3.5 mph - N/A   Mostly Cloudy
6:16 AM 39.2 °F 35.9 °F 26.6 °F 61% 29.35 in 10.0 mi SSW 4.6 mph - N/A   Scattered Clouds
6:36 AM 39.2 °F 37.0 °F 26.6 °F 61% 29.34 in 10.0 mi SW 3.5 mph - N/A   Mostly Cloudy
6:56 AM 39.2 °F 35.9 °F 26.6 °F 61% 29.34 in 10.0 mi SW 4.6 mph - N/A   Mostly Cloudy
7:16 AM 39.2 °F 35.0 °F 26.6 °F 61% 29.34 in 10.0 mi SW 5.8 mph - N/A   Mostly Cloudy
7:36 AM 39.2 °F 33.6 °F 28.4 °F 65% 29.34 in 10.0 mi SW 8.1 mph - N/A   Mostly Cloudy
7:56 AM 39.2 °F 35.0 °F 28.4 °F 65% 29.35 in 10.0 mi WSW 5.8 mph - N/A   Scattered Clouds
8:16 AM 39.2 °F 37.0 °F 26.6 °F 61% 29.35 in 10.0 mi West 3.5 mph - N/A   Mostly Cloudy
8:36 AM 39.2 °F - 26.6 °F 61% 29.35 in 10.0 mi Calm Calm - N/A   Overcast
8:56 AM 39.2 °F - 26.6 °F 61% 29.35 in 10.0 mi Calm Calm - N/A   Overcast
9:16 AM 39.2 °F - 28.4 °F 65% 29.35 in 10.0 mi Calm Calm - N/A   Overcast
9:36 AM 39.2 °F 35.9 °F 28.4 °F 65% 29.35 in 10.0 mi SSW 4.6 mph - N/A   Scattered Clouds
9:56 AM 41.0 °F 37.1 °F 28.4 °F 61% 29.34 in 10.0 mi South 5.8 mph - N/A   Clear
10:16 AM 42.8 °F 39.3 °F 28.4 °F 57% 29.35 in 10.0 mi SSW 5.8 mph - N/A   Scattered Clouds
10:36 AM 42.8 °F 41.1 °F 28.4 °F 57% 29.35 in 10.0 mi SSE 3.5 mph - N/A   Overcast
10:56 AM 44.6 °F 42.2 °F 26.6 °F 49% 29.35 in 10.0 mi SSE 4.6 mph - N/A   Overcast
11:16 AM 44.6 °F 40.2 °F 26.6 °F 49% 29.35 in 10.0 mi SSW 8.1 mph - N/A   Overcast
11:36 AM 44.6 °F 40.2 °F 26.6 °F 49% 29.35 in 10.0 mi South 8.1 mph 17.3 mph N/A   Overcast
11:56 AM 44.6 °F 40.2 °F 26.6 °F 49% 29.36 in 10.0 mi SSE 8.1 mph 16.1 mph N/A   Overcast
12:16 PM 44.6 °F 39.2 °F 26.6 °F 49% 29.36 in 10.0 mi SSE 10.4 mph - N/A   Overcast
12:36 PM 44.6 °F 42.2 °F 28.4 °F 53% 29.37 in 10.0 mi South 4.6 mph - N/A   Overcast
12:56 PM 44.6 °F 39.7 °F 28.4 °F 53% 29.37 in 10.0 mi South 9.2 mph 17.3 mph N/A   Overcast
1:16 PM 44.6 °F 40.7 °F 28.4 °F 53% 29.37 in 10.0 mi SSE 6.9 mph - N/A   Overcast
1:36 PM 44.6 °F 40.7 °F 28.4 °F 53% 29.37 in 10.0 mi South 6.9 mph - N/A   Overcast
1:56 PM 44.6 °F 42.2 °F 28.4 °F 53% 29.37 in 10.0 mi SSE 4.6 mph - N/A   Overcast
2:16 PM 44.6 °F 40.7 °F 28.4 °F 53% 29.37 in 10.0 mi South 6.9 mph - N/A   Overcast
2:36 PM 44.6 °F 42.2 °F 28.4 °F 53% 29.38 in 10.0 mi SSE 4.6 mph - N/A   Overcast
2:56 PM 44.6 °F 43.1 °F 28.4 °F 53% 29.38 in 10.0 mi SSE 3.5 mph - N/A   Overcast
3:16 PM 44.6 °F 41.4 °F 28.4 °F 53% 29.38 in 10.0 mi SSE 5.8 mph - N/A   Scattered Clouds
3:36 PM 44.6 °F - 28.4 °F 53% 29.38 in 10.0 mi Calm Calm - N/A   Mostly Cloudy
3:56 PM 46.4 °F 43.5 °F 28.4 °F 50% 29.38 in 10.0 mi South 5.8 mph - N/A   Overcast
4:16 PM 46.4 °F 42.9 °F 28.4 °F 50% 29.38 in 10.0 mi South 6.9 mph - N/A   Scattered Clouds
4:36 PM 46.4 °F 41.9 °F 28.4 °F 50% 29.38 in 10.0 mi SSW 9.2 mph - N/A   Mostly Cloudy
4:56 PM 44.6 °F 39.7 °F 28.4 °F 53% 29.39 in 10.0 mi SSW 9.2 mph - N/A   Overcast
5:16 PM 44.6 °F 40.2 °F 28.4 °F 53% 29.39 in 10.0 mi SSW 8.1 mph - N/A   Mostly Cloudy
5:36 PM 44.6 °F 43.1 °F 28.4 °F 53% 29.40 in 10.0 mi South 3.5 mph - N/A   Scattered Clouds
5:56 PM 44.6 °F 41.4 °F 28.4 °F 53% 29.40 in 10.0 mi South 5.8 mph - N/A   Scattered Clouds
6:16 PM 42.8 °F 40.1 °F 28.4 °F 57% 29.41 in 10.0 mi South 4.6 mph - N/A   Overcast
6:36 PM 42.8 °F 39.3 °F 28.4 °F 57% 29.41 in 10.0 mi SSW 5.8 mph - N/A   Overcast
6:56 PM 42.8 °F 40.1 °F 28.4 °F 57% 29.42 in 10.0 mi SSW 4.6 mph - N/A   Overcast
7:16 PM 42.8 °F 39.3 °F 28.4 °F 57% 29.43 in 10.0 mi SSW 5.8 mph - N/A   Overcast
7:36 PM 42.8 °F - 30.2 °F 61% 29.43 in 10.0 mi Calm Calm - N/A   Overcast
7:56 PM 42.8 °F - 30.2 °F 61% 29.44 in 10.0 mi Calm Calm - N/A   Overcast
8:16 PM 41.0 °F - 30.2 °F 65% 29.44 in 10.0 mi Calm Calm - N/A   Overcast
8:36 PM 41.0 °F - 30.2 °F 65% 29.45 in 10.0 mi Calm Calm - N/A   Overcast
8:56 PM 39.2 °F - 30.2 °F 70% 29.45 in 10.0 mi Calm Calm - N/A   Overcast
9:16 PM 39.2 °F - 30.2 °F 70% 29.46 in 10.0 mi Calm Calm - N/A   Overcast
9:36 PM 39.2 °F - 30.2 °F 70% 29.46 in 10.0 mi Calm Calm - N/A   Overcast
9:56 PM 37.4 °F - 30.2 °F 75% 29.47 in 10.0 mi Calm Calm - N/A   Overcast
10:16 PM 37.4 °F - 30.2 °F 75% 29.47 in 10.0 mi Calm Calm - N/A   Overcast
10:36 PM 39.2 °F - 30.2 °F 70% 29.47 in 10.0 mi Calm Calm - N/A   Overcast
10:56 PM 37.4 °F - 30.2 °F 75% 29.48 in 10.0 mi Calm Calm - N/A   Overcast
11:16 PM 37.4 °F - 30.2 °F 75% 29.48 in 10.0 mi Calm Calm - N/A   Overcast
11:36 PM 35.6 °F - 28.4 °F 75% 29.49 in 10.0 mi Calm Calm - N/A   Scattered Clouds
11:56 PM 35.6 °F 32.8 °F 30.2 °F 81% 29.49 in 10.0 mi SW 3.5 mph - N/A   Clear